Time,TemperatureF,DewpointF,PressureIn,WindDirection,WindDirectionDegrees,WindSpeedMPH,WindSpeedGustMPH,Humidity,HourlyPrecipIn,Conditions,Clouds,dailyrainin,SoftwareType,DateUTC
2013-04-08 00:00:00,57.4,46.9,29.71,South,171,1.0,6.0,68,0.00,CLR,SKC,0.00,WeatherDisplay:10.37,2013-04-07 22:00:00,
2013-04-08 00:10:00,57.3,46.8,29.71,South,182,1.0,5.0,68,0.00,CLR,SKC,0.00,WeatherDisplay:10.37,2013-04-07 22:10:00,
2013-04-08 00:20:00,57.2,47.1,29.71,South,171,2.0,6.0,69,0.00,CLR,SKC,0.00,WeatherDisplay:10.37,2013-04-07 22:20:00,
2013-04-08 00:30:00,56.9,46.8,29.71,South,173,1.0,6.0,69,0.00,CLR,SKC,0.00,WeatherDisplay:10.37,2013-04-07 22:30:00,
2013-04-08 00:40:00,56.8,46.3,29.71,SSE,150,1.0,6.0,68,0.00,CLR,SKC,0.00,WeatherDisplay:10.37,2013-04-07 22:40:00,
2013-04-08 00:50:00,56.7,46.6,29.72,SSE,161,0.0,4.0,69,0.00,CLR,SKC,0.00,WeatherDisplay:10.37,2013-04-07 22:50:00,
2013-04-08 01:00:00,56.4,46.7,29.72,SSW,193,0.0,1.0,70,0.00,CLR,SKC,0.00,WeatherDisplay:10.37,2013-04-07 23:00:00,
2013-04-08 01:10:00,56.3,47.0,29.71,SSW,193,0.0,2.0,71,0.00,CLR,SKC,0.00,WeatherDisplay:10.37,2013-04-07 23:10:00,
2013-04-08 01:20:00,56.4,47.5,29.71,SSW,192,1.0,3.0,72,0.00,CLR,SKC,0.00,WeatherDisplay:10.37,2013-04-07 23:20:00,
2013-04-08 01:30:00,56.6,47.7,29.71,SSE,149,0.0,4.0,72,0.00,CLR,SKC,0.00,WeatherDisplay:10.37,2013-04-07 23:30:00,
2013-04-08 01:40:00,56.6,47.7,29.71,South,171,1.0,5.0,72,0.00,CLR,SKC,0.00,WeatherDisplay:10.37,2013-04-07 23:40:00,
2013-04-08 01:50:00,56.7,47.8,29.71,SSE,163,2.0,8.0,72,0.00,CLR,SKC,0.00,WeatherDisplay:10.37,2013-04-07 23:50:00,
2013-04-08 02:00:00,56.7,47.4,29.71,SSE,166,3.0,9.0,71,0.00,CLR,SKC,0.00,WeatherDisplay:10.37,2013-04-08 00:00:00,
2013-04-08 02:10:00,56.7,47.0,29.71,SSE,154,2.0,9.0,70,0.00,CLR,SKC,0.00,WeatherDisplay:10.37,2013-04-08 00:10:00,
2013-04-08 02:20:00,56.8,47.1,29.71,SSE,161,1.0,7.0,70,0.00,CLR,SKC,0.00,WeatherDisplay:10.37,2013-04-08 00:20:00,
2013-04-08 02:30:00,56.7,47.4,29.72,SSE,159,1.0,5.0,71,0.00,CLR,SKC,0.00,WeatherDisplay:10.37,2013-04-08 00:30:00,
2013-04-08 02:40:00,56.6,47.3,29.71,SSE,156,1.0,5.0,71,0.00,CLR,SKC,0.00,WeatherDisplay:10.37,2013-04-08 00:40:00,
2013-04-08 02:50:00,56.5,47.3,29.71,SSE,153,0.0,6.0,71,0.00,CLR,SKC,0.00,WeatherDisplay:10.37,2013-04-08 00:50:00,
2013-04-08 03:00:00,56.4,46.7,29.71,South,180,0.0,4.0,70,0.00,CLR,SKC,0.00,WeatherDisplay:10.37,2013-04-08 01:00:00,
2013-04-08 03:10:00,56.2,46.9,29.71,SSW,192,0.0,1.0,71,0.00,CLR,SKC,0.00,WeatherDisplay:10.37,2013-04-08 01:10:00,
2013-04-08 03:20:00,56.0,47.1,29.71,SSW,192,0.0,0.0,72,0.00,CLR,SKC,0.00,WeatherDisplay:10.37,2013-04-08 01:20:00,
2013-04-08 03:30:00,55.8,46.9,29.71,SSW,192,0.0,1.0,72,0.00,CLR,SKC,0.00,WeatherDisplay:10.37,2013-04-08 01:30:00,
2013-04-08 03:40:00,55.5,46.9,29.71,SSW,192,0.0,0.0,73,0.00,CLR,SKC,0.00,WeatherDisplay:10.37,2013-04-08 01:40:00,
2013-04-08 03:50:00,55.2,47.1,29.72,SSW,192,0.0,0.0,74,0.00,CLR,SKC,0.00,WeatherDisplay:10.37,2013-04-08 01:50:00,
2013-04-08 04:00:00,55.2,47.8,29.72,SSW,192,0.0,0.0,76,0.00,CLR,SKC,0.00,WeatherDisplay:10.37,2013-04-08 02:00:00,
2013-04-08 04:10:00,55.0,47.6,29.72,SSW,192,0.0,3.0,76,0.00,CLR,SKC,0.00,WeatherDisplay:10.37,2013-04-08 02:10:00,
2013-04-08 04:20:00,54.7,47.3,29.72,SSW,192,0.0,2.0,76,0.00,CLR,SKC,0.00,WeatherDisplay:10.37,2013-04-08 02:20:00,
2013-04-08 04:30:00,54.6,47.6,29.72,SSW,192,0.0,0.0,77,0.00,CLR,SKC,0.00,WeatherDisplay:10.37,2013-04-08 02:30:00,
2013-04-08 04:40:00,54.3,47.6,29.72,SSW,192,0.0,1.0,78,0.00,CLR,SKC,0.00,WeatherDisplay:10.37,2013-04-08 02:40:00,
2013-04-08 04:50:00,53.8,47.1,29.72,SSW,192,0.0,0.0,78,0.00,CLR,SKC,0.00,WeatherDisplay:10.37,2013-04-08 02:50:00,
2013-04-08 05:00:00,53.8,47.1,29.72,SSW,192,0.0,0.0,78,0.00,CLR,SKC,0.00,WeatherDisplay:10.37,2013-04-08 03:00:00,
2013-04-08 05:10:00,53.9,47.5,29.72,SSW,192,0.0,0.0,79,0.00,CLR,SKC,0.00,WeatherDisplay:10.37,2013-04-08 03:10:00,
2013-04-08 05:30:00,54.0,48.0,29.72,SSW,192,0.0,1.0,80,0.00,CLR,SKC,0.00,WeatherDisplay:10.37,2013-04-08 03:30:00,
2013-04-08 05:40:00,54.0,47.6,29.72,SSW,192,0.0,0.0,79,0.00,CLR,SKC,0.00,WeatherDisplay:10.37,2013-04-08 03:40:00,
2013-04-08 05:50:00,53.8,47.8,29.72,SSW,192,0.0,0.0,80,0.00,CLR,SKC,0.00,WeatherDisplay:10.37,2013-04-08 03:50:00,
2013-04-08 06:00:00,53.7,47.7,29.72,SSW,192,0.0,0.0,80,0.00,CLR,SKC,0.00,WeatherDisplay:10.37,2013-04-08 04:00:00,
2013-04-08 06:10:00,53.7,48.0,29.73,SSW,192,0.0,0.0,81,0.00,CLR,SKC,0.00,WeatherDisplay:10.37,2013-04-08 04:10:00,
2013-04-08 06:20:00,53.6,47.9,29.73,SSW,192,0.0,2.0,81,0.00,CLR,SKC,0.00,WeatherDisplay:10.37,2013-04-08 04:20:00,
2013-04-08 06:30:00,53.5,47.8,29.73,SSW,192,0.0,2.0,81,0.00,CLR,SKC,0.00,WeatherDisplay:10.37,2013-04-08 04:30:00,
2013-04-08 06:40:00,53.6,47.6,29.74,SSW,192,0.0,1.0,80,0.00,CLR,SKC,0.00,WeatherDisplay:10.37,2013-04-08 04:40:00,
2013-04-08 06:50:00,53.7,47.7,29.74,SSW,192,0.0,0.0,80,0.00,CLR,SKC,0.00,WeatherDisplay:10.37,2013-04-08 04:50:00,
2013-04-08 07:00:00,53.7,47.7,29.74,SSW,192,0.0,0.0,80,0.00,CLR,SKC,0.00,WeatherDisplay:10.37,2013-04-08 05:00:00,
2013-04-08 07:10:00,53.7,47.3,29.74,SSW,192,0.0,0.0,79,0.00,CLR,SKC,0.00,WeatherDisplay:10.37,2013-04-08 05:10:00,
2013-04-08 07:20:00,54.1,47.7,29.75,SSW,192,0.0,0.0,79,0.00,CLR,SKC,0.00,WeatherDisplay:10.37,2013-04-08 05:20:00,
2013-04-08 07:30:00,54.2,47.1,29.75,SSW,192,0.0,0.0,77,0.00,CLR,SKC,0.00,WeatherDisplay:10.37,2013-04-08 05:30:00,
2013-04-08 07:40:00,54.5,47.4,29.76,SSW,192,0.0,0.0,77,0.00,CLR,SKC,0.00,WeatherDisplay:10.37,2013-04-08 05:40:00,
2013-04-08 07:50:00,54.7,46.9,29.76,SSW,192,0.0,0.0,75,0.00,CLR,SKC,0.00,WeatherDisplay:10.37,2013-04-08 05:50:00,
2013-04-08 08:00:00,54.9,46.4,29.76,SSW,192,0.0,1.0,73,0.00,CLR,SKC,0.00,WeatherDisplay:10.37,2013-04-08 06:00:00,
2013-04-08 08:10:00,55.1,46.6,29.77,SSW,192,0.0,0.0,73,0.00,CLR,SKC,0.00,WeatherDisplay:10.37,2013-04-08 06:10:00,
2013-04-08 08:30:00,55.7,47.2,29.77,SSW,192,0.0,0.0,73,0.00,CLR,SKC,0.00,WeatherDisplay:10.37,2013-04-08 06:30:00,
2013-04-08 08:40:00,55.8,46.9,29.77,WNW,282,0.0,4.0,72,0.00,CLR,SKC,0.00,WeatherDisplay:10.37,2013-04-08 06:40:00,
2013-04-08 08:50:00,55.8,46.6,29.77,NW,306,1.0,3.0,71,0.00,CLR,SKC,0.00,WeatherDisplay:10.37,2013-04-08 06:50:00,
2013-04-08 09:00:00,56.5,46.4,29.78,NW,307,1.0,3.0,69,0.00,CLR,SKC,0.00,WeatherDisplay:10.37,2013-04-08 07:00:00,
2013-04-08 09:10:00,56.7,45.9,29.78,WNW,283,1.0,4.0,67,0.00,CLR,SKC,0.00,WeatherDisplay:10.37,2013-04-08 07:10:00,
2013-04-08 09:20:00,56.7,46.3,29.78,WNW,303,1.0,6.0,68,0.00,CLR,SKC,0.00,WeatherDisplay:10.37,2013-04-08 07:20:00,
2013-04-08 09:30:00,57.0,46.1,29.79,NW,326,2.0,7.0,67,0.00,CLR,SKC,0.00,WeatherDisplay:10.37,2013-04-08 07:30:00,
2013-04-08 09:40:00,56.8,45.5,29.79,NW,325,3.0,6.0,66,0.00,CLR,SKC,0.00,WeatherDisplay:10.37,2013-04-08 07:40:00,
2013-04-08 09:50:00,56.3,45.1,29.80,NW,309,1.0,6.0,66,0.00,CLR,SKC,0.00,WeatherDisplay:10.37,2013-04-08 07:50:00,
2013-04-08 10:00:00,56.3,45.5,29.79,NW,317,1.0,4.0,67,0.00,CLR,SKC,0.00,WeatherDisplay:10.37,2013-04-08 08:00:00,
2013-04-08 10:10:00,56.6,45.7,29.80,WNW,300,3.0,5.0,67,0.00,CLR,SKC,0.00,WeatherDisplay:10.37,2013-04-08 08:10:00,
2013-04-08 10:20:00,57.1,45.4,29.80,NW,308,3.0,6.0,65,0.00,CLR,SKC,0.00,WeatherDisplay:10.37,2013-04-08 08:20:00,
2013-04-08 10:30:00,56.9,45.7,29.80,West,272,5.0,7.0,66,0.00,CLR,SKC,0.00,WeatherDisplay:10.37,2013-04-08 08:30:00,
2013-04-08 10:40:00,57.3,45.6,29.81,WNW,300,2.0,6.0,65,0.00,CLR,SKC,0.00,WeatherDisplay:10.37,2013-04-08 08:40:00,
2013-04-08 10:50:00,57.1,45.4,29.81,NW,311,1.0,6.0,65,0.00,CLR,SKC,0.00,WeatherDisplay:10.37,2013-04-08 08:50:00,
2013-04-08 11:00:00,57.9,45.8,29.81,North,358,1.0,5.0,64,0.00,CLR,SKC,0.00,WeatherDisplay:10.37,2013-04-08 09:00:00,
2013-04-08 11:10:00,58.3,46.1,29.81,WSW,243,3.0,8.0,64,0.00,CLR,SKC,0.00,WeatherDisplay:10.37,2013-04-08 09:10:00,
2013-04-08 11:20:00,58.5,46.0,29.82,WSW,258,1.0,6.0,63,0.00,CLR,SKC,0.00,WeatherDisplay:10.37,2013-04-08 09:20:00,
2013-04-08 11:30:00,58.5,44.6,29.82,South,173,6.0,12.0,60,0.00,CLR,SKC,0.00,WeatherDisplay:10.37,2013-04-08 09:30:00,
2013-04-08 11:40:00,57.9,44.1,29.82,South,181,5.0,12.0,60,0.00,CLR,SKC,0.00,WeatherDisplay:10.37,2013-04-08 09:40:00,
2013-04-08 11:50:00,57.9,44.5,29.82,South,173,8.0,13.0,61,0.00,CLR,SKC,0.00,WeatherDisplay:10.37,2013-04-08 09:50:00,
2013-04-08 12:00:00,57.9,44.5,29.82,SSE,163,6.0,12.0,61,0.00,CLR,SKC,0.00,WeatherDisplay:10.37,2013-04-08 10:00:00,
2013-04-08 12:10:00,58.0,45.1,29.83,South,177,8.0,12.0,62,0.00,CLR,SKC,0.00,WeatherDisplay:10.37,2013-04-08 10:10:00,
2013-04-08 12:20:00,58.0,45.9,29.83,SSE,159,3.0,12.0,64,0.00,CLR,SKC,0.00,WeatherDisplay:10.37,2013-04-08 10:20:00,
2013-04-08 12:30:00,58.6,46.4,29.82,South,172,2.0,12.0,64,0.00,CLR,SKC,0.00,WeatherDisplay:10.37,2013-04-08 10:30:00,
2013-04-08 12:40:00,58.4,46.3,29.83,SSE,156,8.0,12.0,64,0.00,CLR,SKC,0.00,WeatherDisplay:10.37,2013-04-08 10:40:00,
2013-04-08 12:50:00,58.7,47.4,29.83,South,174,2.0,12.0,66,0.00,CLR,SKC,0.00,WeatherDisplay:10.37,2013-04-08 10:50:00,
2013-04-08 13:00:00,58.7,47.8,29.82,South,169,5.0,10.0,67,0.00,CLR,SKC,0.00,WeatherDisplay:10.37,2013-04-08 11:00:00,
2013-04-08 13:10:00,58.2,48.1,29.83,South,174,6.0,14.0,69,0.00,CLR,SKC,0.00,WeatherDisplay:10.37,2013-04-08 11:10:00,
2013-04-08 13:20:00,58.3,49.0,29.83,South,183,3.0,12.0,71,0.00,CLR,SKC,0.00,WeatherDisplay:10.37,2013-04-08 11:20:00,
2013-04-08 13:30:00,58.6,48.8,29.83,South,185,6.0,10.0,70,0.00,CLR,SKC,0.00,WeatherDisplay:10.37,2013-04-08 11:30:00,
2013-04-08 13:40:00,58.1,48.7,29.83,SSW,207,6.0,10.0,71,0.00,CLR,SKC,0.00,WeatherDisplay:10.37,2013-04-08 11:40:00,
2013-04-08 13:50:00,58.2,47.6,29.83,SSW,204,2.0,10.0,68,0.00,CLR,SKC,0.00,WeatherDisplay:10.37,2013-04-08 11:50:00,
2013-04-08 14:00:00,59.6,46.5,29.83,SW,227,2.0,7.0,62,0.00,CLR,SKC,0.00,WeatherDisplay:10.37,2013-04-08 12:00:00,
2013-04-08 14:20:00,57.2,48.3,29.83,NW,304,5.0,11.0,72,0.00,CLR,SKC,0.00,WeatherDisplay:10.37,2013-04-08 12:20:00,
2013-04-08 14:30:00,57.7,48.7,29.83,WNW,291,6.0,12.0,72,0.00,CLR,SKC,0.00,WeatherDisplay:10.37,2013-04-08 12:30:00,
2013-04-08 14:40:00,57.9,48.2,29.82,NW,305,5.0,10.0,70,0.00,CLR,SKC,0.00,WeatherDisplay:10.37,2013-04-08 12:40:00,
2013-04-08 14:50:00,57.8,48.5,29.82,NW,315,5.0,8.0,71,0.00,CLR,SKC,0.00,WeatherDisplay:10.37,2013-04-08 12:50:00,
2013-04-08 15:00:00,58.0,49.0,29.82,WNW,287,5.0,8.0,72,0.00,CLR,SKC,0.00,WeatherDisplay:10.37,2013-04-08 13:00:00,
2013-04-08 15:10:00,58.5,48.8,29.82,WNW,287,7.0,11.0,70,0.00,CLR,SKC,0.00,WeatherDisplay:10.37,2013-04-08 13:10:00,
2013-04-08 15:20:00,57.9,48.5,29.81,NNW,339,6.0,9.0,71,0.00,CLR,SKC,0.00,WeatherDisplay:10.37,2013-04-08 13:20:00,
2013-04-08 15:30:00,57.2,47.9,29.82,WNW,297,5.0,8.0,71,0.00,CLR,SKC,0.00,WeatherDisplay:10.37,2013-04-08 13:30:00,
2013-04-08 15:40:00,56.9,47.6,29.82,NNW,329,5.0,9.0,71,0.00,CLR,SKC,0.00,WeatherDisplay:10.37,2013-04-08 13:40:00,
2013-04-08 15:50:00,58.0,49.0,29.82,NNW,339,5.0,8.0,72,0.00,CLR,SKC,0.00,WeatherDisplay:10.37,2013-04-08 13:50:00,
2013-04-08 16:00:00,58.0,49.0,29.82,NW,318,7.0,12.0,72,0.00,CLR,SKC,0.00,WeatherDisplay:10.37,2013-04-08 14:00:00,
2013-04-08 16:10:00,58.2,47.7,29.82,WNW,298,5.0,13.0,68,0.00,CLR,SKC,0.00,WeatherDisplay:10.37,2013-04-08 14:10:00,
2013-04-08 16:20:00,58.1,47.2,29.82,NW,312,6.0,12.0,67,0.00,CLR,SKC,0.00,WeatherDisplay:10.37,2013-04-08 14:20:00,
2013-04-08 16:30:00,58.2,46.5,29.82,NW,320,7.0,13.0,65,0.00,CLR,SKC,0.00,WeatherDisplay:10.37,2013-04-08 14:30:00,
2013-04-08 16:40:00,57.9,47.0,29.82,WNW,302,5.0,12.0,67,0.00,CLR,SKC,0.00,WeatherDisplay:10.37,2013-04-08 14:40:00,
2013-04-08 16:50:00,58.7,48.2,29.82,WNW,294,5.0,12.0,68,0.00,CLR,SKC,0.00,WeatherDisplay:10.37,2013-04-08 14:50:00,
2013-04-08 17:00:00,59.2,47.8,29.83,West,273,3.0,10.0,66,0.00,CLR,SKC,0.00,WeatherDisplay:10.37,2013-04-08 15:00:00,
2013-04-08 17:10:00,59.5,47.3,29.83,WNW,283,3.0,8.0,64,0.00,CLR,SKC,0.00,WeatherDisplay:10.37,2013-04-08 15:10:00,
2013-04-08 17:20:00,58.4,45.9,29.83,NW,306,5.0,10.0,63,0.00,CLR,SKC,0.00,WeatherDisplay:10.37,2013-04-08 15:20:00,
2013-04-08 17:40:00,58.6,46.8,29.83,NW,316,3.0,9.0,65,0.00,CLR,SKC,0.00,WeatherDisplay:10.37,2013-04-08 15:40:00,
2013-04-08 17:50:00,57.4,45.7,29.83,NNW,340,2.0,10.0,65,0.00,CLR,SKC,0.00,WeatherDisplay:10.37,2013-04-08 15:50:00,
2013-04-08 18:00:00,57.7,46.0,29.84,NW,315,6.0,8.0,65,0.00,CLR,SKC,0.00,WeatherDisplay:10.37,2013-04-08 16:00:00,
2013-04-08 18:10:00,57.2,45.9,29.85,NW,316,5.0,9.0,66,0.00,CLR,SKC,0.00,WeatherDisplay:10.37,2013-04-08 16:10:00,
2013-04-08 18:20:00,57.5,47.4,29.85,NW,313,3.0,12.0,69,0.00,CLR,SKC,0.00,WeatherDisplay:10.37,2013-04-08 16:20:00,
2013-04-08 18:30:00,57.0,48.8,29.84,WNW,295,6.0,10.0,74,0.00,CLR,SKC,0.00,WeatherDisplay:10.37,2013-04-08 16:30:00,
2013-04-08 18:40:00,57.0,49.5,29.84,West,278,1.0,8.0,76,0.00,CLR,SKC,0.00,WeatherDisplay:10.37,2013-04-08 16:40:00,
2013-04-08 18:50:00,56.9,49.4,29.85,West,276,1.0,7.0,76,0.00,CLR,SKC,0.00,WeatherDisplay:10.37,2013-04-08 16:50:00,
2013-04-08 19:00:00,56.5,49.7,29.86,West,269,1.0,7.0,78,0.00,CLR,SKC,0.00,WeatherDisplay:10.37,2013-04-08 17:00:00,
2013-04-08 19:10:00,56.1,49.7,29.86,WNW,290,2.0,7.0,79,0.00,CLR,SKC,0.00,WeatherDisplay:10.37,2013-04-08 17:10:00,
2013-04-08 19:20:00,55.9,50.2,29.85,NW,307,2.0,6.0,81,0.00,CLR,SKC,0.00,WeatherDisplay:10.37,2013-04-08 17:20:00,
2013-04-08 19:30:00,55.8,50.1,29.85,NW,312,1.0,6.0,81,0.00,CLR,SKC,0.00,WeatherDisplay:10.37,2013-04-08 17:30:00,
2013-04-08 19:40:00,55.7,50.3,29.86,NW,313,1.0,4.0,82,0.00,CLR,SKC,0.00,WeatherDisplay:10.37,2013-04-08 17:40:00,
2013-04-08 19:50:00,55.6,50.2,29.87,West,279,1.0,5.0,82,0.00,CLR,SKC,0.00,WeatherDisplay:10.37,2013-04-08 17:50:00,
2013-04-08 20:00:00,55.6,50.2,29.87,WSW,243,2.0,5.0,82,0.00,CLR,SKC,0.00,WeatherDisplay:10.37,2013-04-08 18:00:00,
2013-04-08 20:10:00,55.7,50.3,29.87,WSW,242,3.0,7.0,82,0.00,CLR,SKC,0.00,WeatherDisplay:10.37,2013-04-08 18:10:00,
2013-04-08 20:20:00,55.7,50.3,29.88,West,261,1.0,5.0,82,0.00,CLR,SKC,0.00,WeatherDisplay:10.37,2013-04-08 18:20:00,
2013-04-08 20:30:00,55.7,50.6,29.88,WSW,258,0.0,4.0,83,0.00,CLR,SKC,0.00,WeatherDisplay:10.37,2013-04-08 18:30:00,
2013-04-08 20:50:00,55.8,50.7,29.88,West,273,1.0,6.0,83,0.00,CLR,SKC,0.00,WeatherDisplay:10.37,2013-04-08 18:50:00,
2013-04-08 21:00:00,55.9,50.8,29.88,NW,310,2.0,6.0,83,0.00,CLR,SKC,0.00,WeatherDisplay:10.37,2013-04-08 19:00:00,
2013-04-08 21:10:00,55.8,50.7,29.88,SW,226,0.0,5.0,83,0.00,CLR,SKC,0.00,WeatherDisplay:10.37,2013-04-08 19:10:00,
2013-04-08 21:20:00,55.7,50.6,29.88,SW,226,0.0,0.0,83,0.00,CLR,SKC,0.00,WeatherDisplay:10.37,2013-04-08 19:20:00,
2013-04-08 21:30:00,55.6,50.5,29.88,WSW,239,1.0,3.0,83,0.00,CLR,SKC,0.00,WeatherDisplay:10.37,2013-04-08 19:30:00,
2013-04-08 21:40:00,55.5,50.4,29.89,West,261,0.0,3.0,83,0.00,CLR,SKC,0.00,WeatherDisplay:10.37,2013-04-08 19:40:00,
2013-04-08 21:50:00,55.4,50.3,29.89,West,261,0.0,0.0,83,0.00,CLR,SKC,0.00,WeatherDisplay:10.37,2013-04-08 19:50:00,
2013-04-08 22:00:00,55.4,50.3,29.89,West,261,0.0,1.0,83,0.00,CLR,SKC,0.00,WeatherDisplay:10.37,2013-04-08 20:00:00,
2013-04-08 22:10:00,55.4,50.3,29.89,West,261,0.0,1.0,83,0.00,CLR,SKC,0.00,WeatherDisplay:10.37,2013-04-08 20:10:00,
2013-04-08 22:20:00,55.4,50.3,29.89,West,261,0.0,0.0,83,0.00,CLR,SKC,0.00,WeatherDisplay:10.37,2013-04-08 20:20:00,
2013-04-08 22:30:00,55.5,50.4,29.89,West,261,0.0,1.0,83,0.00,CLR,SKC,0.00,WeatherDisplay:10.37,2013-04-08 20:30:00,
2013-04-08 22:40:00,55.3,50.2,29.89,South,175,0.0,3.0,83,0.00,CLR,SKC,0.00,WeatherDisplay:10.37,2013-04-08 20:40:00,
2013-04-08 22:50:00,55.1,50.0,29.88,South,171,0.0,0.0,83,0.00,CLR,SKC,0.00,WeatherDisplay:10.37,2013-04-08 20:50:00,
2013-04-08 23:00:00,54.9,50.1,29.89,South,171,0.0,0.0,84,0.00,CLR,SKC,0.00,WeatherDisplay:10.37,2013-04-08 21:00:00,
2013-04-08 23:10:00,54.6,49.9,29.89,South,171,0.0,0.0,84,0.00,CLR,SKC,0.00,WeatherDisplay:10.37,2013-04-08 21:10:00,
2013-04-08 23:20:00,54.4,49.7,29.89,South,171,0.0,1.0,84,0.00,CLR,SKC,0.00,WeatherDisplay:10.37,2013-04-08 21:20:00,
2013-04-08 23:30:00,54.0,49.6,29.89,South,171,0.0,2.0,85,0.00,CLR,SKC,0.00,WeatherDisplay:10.37,2013-04-08 21:30:00,
2013-04-08 23:40:00,53.9,49.5,29.89,South,171,0.0,3.0,85,0.00,CLR,SKC,0.00,WeatherDisplay:10.37,2013-04-08 21:40:00,
2013-04-08 23:50:00,53.7,49.3,29.89,South,171,1.0,3.0,85,0.00,CLR,SKC,0.00,WeatherDisplay:10.37,2013-04-08 21:50:00,